TimeEST,TemperatureF,Dew PointF,Humidity,Sea Level PressureIn,VisibilityMPH,Wind Direction,Wind SpeedMPH,Gust SpeedMPH,PrecipitationIn,Events,Conditions,WindDirDegrees,DateUTC
12:53 AM,71.1,66.9,87,30.03,10.0,Calm,Calm,-,0.00,,Scattered Clouds,0,2012-12-12 05:53:00
1:53 AM,71.1,68.0,90,30.04,10.0,Calm,Calm,-,N/A,,Overcast,0,2012-12-12 06:53:00
2:53 AM,71.1,68.0,90,30.04,10.0,NNW,3.5,-,N/A,,Overcast,330,2012-12-12 07:53:00
3:53 AM,71.1,68.0,90,30.04,10.0,NW,3.5,-,N/A,,Mostly Cloudy,310,2012-12-12 08:53:00
4:00 AM,71.6,68.0,88,30.04,10.0,Calm,Calm,-,N/A,,Overcast,0,2012-12-12 09:00:00
4:42 AM,71.6,69.8,94,30.04,5.0,West,3.5,-,0.01,Rain,Rain,260,2012-12-12 09:42:00
4:50 AM,71.6,69.8,94,30.04,6.0,West,3.5,-,0.02,Rain,Light Rain,270,2012-12-12 09:50:00
4:53 AM,71.1,69.1,93,30.03,7.0,West,3.5,-,0.02,Rain,Light Rain,280,2012-12-12 09:53:00
4:58 AM,71.6,69.8,94,30.03,7.0,Calm,Calm,-,0.00,Rain-Thunderstorm,Light Rain,0,2012-12-12 09:58:00
5:15 AM,71.6,69.8,94,30.03,10.0,NW,3.5,-,0.00,Thunderstorm,Mostly Cloudy,320,2012-12-12 10:15:00
5:24 AM,71.6,69.8,94,30.02,10.0,East,4.6,-,0.00,,Mostly Cloudy,80,2012-12-12 10:24:00
5:48 AM,71.6,69.8,94,30.04,9.0,NW,3.5,-,0.00,,Scattered Clouds,310,2012-12-12 10:48:00
5:53 AM,70.0,69.1,97,30.04,8.0,NNW,3.5,-,0.01,,Partly Cloudy,330,2012-12-12 10:53:00
6:53 AM,70.0,69.1,97,30.05,9.0,Calm,Calm,-,N/A,,Partly Cloudy,0,2012-12-12 11:53:00
7:53 AM,71.1,70.0,96,30.06,8.0,Calm,Calm,-,N/A,,Mostly Cloudy,0,2012-12-12 12:53:00
8:53 AM,75.0,72.0,90,30.08,10.0,Calm,Calm,-,N/A,,Clear,0,2012-12-12 13:53:00
9:38 AM,77.0,71.6,83,30.10,10.0,South,6.9,-,N/A,,Mostly Cloudy,190,2012-12-12 14:38:00
9:53 AM,78.1,72.0,81,30.10,10.0,SW,4.6,-,N/A,,Mostly Cloudy,220,2012-12-12 14:53:00
10:15 AM,78.8,71.6,78,30.10,10.0,SW,9.2,-,N/A,,Scattered Clouds,220,2012-12-12 15:15:00
10:53 AM,81.0,72.0,74,30.09,10.0,SSW,11.5,17.3,N/A,,Mostly Cloudy,200,2012-12-12 15:53:00
11:29 AM,82.4,69.8,66,30.09,10.0,South,12.7,-,N/A,,Mostly Cloudy,190,2012-12-12 16:29:00
11:53 AM,81.0,70.0,69,30.08,10.0,South,9.2,-,N/A,,Mostly Cloudy,190,2012-12-12 16:53:00
12:53 PM,82.9,69.1,63,30.04,10.0,SSW,8.1,-,N/A,,Overcast,210,2012-12-12 17:53:00
1:53 PM,82.0,70.0,67,30.03,10.0,SSW,6.9,-,N/A,,Mostly Cloudy,210,2012-12-12 18:53:00
2:53 PM,80.1,70.0,71,30.02,10.0,SSW,5.8,-,N/A,,Partly Cloudy,200,2012-12-12 19:53:00
3:53 PM,79.0,71.1,77,30.02,10.0,SSW,3.5,-,N/A,,Clear,200,2012-12-12 20:53:00
4:53 PM,79.0,71.1,77,30.04,10.0,SSW,3.5,-,N/A,,Partly Cloudy,210,2012-12-12 21:53:00
5:53 PM,75.9,71.1,85,30.05,10.0,Calm,Calm,-,N/A,,Clear,0,2012-12-12 22:53:00
6:53 PM,75.9,71.1,85,30.05,10.0,South,3.5,-,N/A,,Scattered Clouds,180,2012-12-12 23:53:00
7:53 PM,75.9,71.1,85,30.06,10.0,SSW,3.5,-,N/A,,Clear,200,2012-12-13 00:53:00
8:53 PM,73.9,71.1,91,30.06,10.0,SW,3.5,-,N/A,,Clear,230,2012-12-13 01:53:00
9:53 PM,73.0,71.1,93,30.06,10.0,South,4.6,-,N/A,,Clear,180,2012-12-13 02:53:00
10:53 PM,72.0,70.0,93,30.06,9.0,Calm,Calm,-,N/A,,Partly Cloudy,0,2012-12-13 03:53:00
11:50 PM,73.4,71.6,94,30.06,8.0,SW,3.5,-,N/A,,Mostly Cloudy,220,2012-12-13 04:50:00
11:53 PM,73.0,71.1,93,30.06,8.0,SW,4.6,-,N/A,,Mostly Cloudy,220,2012-12-13 04:53:00